El Dorado, AR

7:47 AM CST on February 26, 2017 (GMT -0600)
South Arkansas Regional At Goodwin

Weather History for KELD - March, 2013

Change the Weather History Date:

Sunday, March 3, 2013

  Actual Average Record
Temperature  
Mean Temperature 41 °F 52 °F  
Max Temperature 59 °F 64 °F 86 °F (1916)
Min Temperature 23 °F 41 °F 13 °F (1943)
Degree Days  
Heating Degree Days 24 13  
Month to date heating degree days 79 40  
Since 1 July heating degree days 2119 2268  
Cooling Degree Days 0 0  
Month to date cooling degree days 0 0  
Year to date cooling degree days 6 6  
Moisture  
Dew Point 25 °F    
Average Humidity 60    
Maximum Humidity 92    
Minimum Humidity 28    
Precipitation  
Precipitation 0.00 in 0.16 in 3.22 in (1970)
Month to date precipitation 0.00 0.48  
Year to date precipitation 6.66 9.57  
Snow  
Snow 0.00 in - - ()
Month to date snowfall 0.0  
Since 1 July snowfall 0.1  
Snow Depth 0.00 in    
Sea Level Pressure  
Sea Level Pressure 30.16 in    
Wind  
Wind Speed 5 mph (SSE)    
Max Wind Speed 15 mph    
Max Gust Speed 18 mph    
Visibility 10 miles    
Events      
T = Trace of Precipitation, MM = Missing Value Source: NWS Daily Summary

Daily Weather History Graph

Daily Weather History Graph

Search for Another Location

Airport or City:

Trip Planner

Search our weather history database for the weather conditions in past years. The results will help you decide how hot, cold, wet, or windy it might be!

Date:

Astronomy

Mar. 03, 2013 Rise Set
Actual Time 6:36 AM CST 6:10 PM CST
Civil Twilight 6:11 AM CST 6:34 PM CST
Nautical Twilight 5:43 AM CST 7:03 PM CST
Astronomical Twilight 5:14 AM CST 7:32 PM CST
Moon No Moon Rise 10:12 AM CST (3/3)
Length of Visible Light 12h 23m
Length of Day
11h 33m
Waning Gibbous, 63% of the Moon is Illuminated
Mar 3
Waning Gibbous
Mar 4
Last Quarter
Mar 11
New
Mar 19
First Quarter
Mar 27
Full

Hourly Weather History & Observations

Time (CST) Temp. Windchill Dew Point Humidity Pressure Visibility Wind Dir Wind Speed Gust Speed Precip Events Conditions
12:53 AM 27.0 °F - 23.0 °F 85% 30.27 in 10.0 mi Calm Calm - N/A   Clear
1:53 AM 26.1 °F - 23.0 °F 88% 30.27 in 10.0 mi Calm Calm - N/A   Clear
2:53 AM 25.0 °F - 23.0 °F 92% 30.26 in 10.0 mi Calm Calm - N/A   Clear
3:53 AM 25.0 °F - 21.9 °F 88% 30.25 in 10.0 mi Calm Calm - N/A   Clear
4:53 AM 24.1 °F - 21.9 °F 91% 30.26 in 10.0 mi Calm Calm - N/A   Clear
5:53 AM 24.1 °F - 21.9 °F 91% 30.27 in 10.0 mi Calm Calm - N/A   Clear
6:53 AM 25.0 °F - 23.0 °F 92% 30.26 in 9.0 mi Calm Calm - N/A   Clear
7:53 AM 28.9 °F 25.2 °F 26.1 °F 89% 30.26 in 9.0 mi SSE 3.5 mph - N/A   Clear
8:53 AM 36.0 °F 30.3 °F 27.0 °F 70% 30.27 in 10.0 mi SSE 6.9 mph - N/A   Clear
9:53 AM 39.9 °F 36.7 °F 26.1 °F 58% 30.27 in 10.0 mi South 4.6 mph - N/A   Clear
10:53 AM 44.1 °F 42.5 °F 25.0 °F 47% 30.25 in 10.0 mi South 3.5 mph - N/A   Clear
11:53 AM 48.0 °F - 23.0 °F 37% 30.22 in 10.0 mi Variable 3.5 mph - N/A   Clear
12:53 PM 52.0 °F - 23.0 °F 32% 30.17 in 10.0 mi ESE 6.9 mph - N/A   Clear
1:53 PM 55.0 °F - 24.1 °F 30% 30.12 in 10.0 mi SSE 11.5 mph - N/A   Clear
2:53 PM 57.0 °F - 25.0 °F 29% 30.09 in 10.0 mi South 9.2 mph - N/A   Clear
3:53 PM 57.9 °F - 25.0 °F 28% 30.07 in 10.0 mi SSE 8.1 mph - N/A   Clear
4:53 PM 57.9 °F - 26.1 °F 30% 30.05 in 10.0 mi South 8.1 mph - N/A   Clear
5:53 PM 55.9 °F - 27.0 °F 33% 30.04 in 10.0 mi SE 8.1 mph - N/A   Clear
6:53 PM 52.0 °F - 28.0 °F 40% 30.04 in 10.0 mi SE 5.8 mph - N/A   Clear
7:53 PM 50.0 °F - 28.9 °F 44% 30.03 in 10.0 mi SE 5.8 mph - N/A   Clear
8:53 PM 48.0 °F - 28.9 °F 48% 30.01 in 10.0 mi SSE 8.1 mph - N/A   Clear
9:53 PM 48.0 °F - 28.9 °F 48% 30.01 in 10.0 mi SSE 6.9 mph - N/A   Clear
10:53 PM 45.0 °F 42.6 °F 30.0 °F 56% 30.01 in 10.0 mi SE 4.6 mph - N/A   Clear
11:53 PM 45.0 °F 41.8 °F 30.9 °F 58% 30.00 in 10.0 mi SSE 5.8 mph - N/A   Clear